Location: Brachbach
(49.1847°N, 9.7240°E)
Time: 20:27:21
(UTC+00:00)

Cosmos 2219 Rocket - Pass Details

Date: 20 August 2024
Orbit: 826 x 846 km, 71.0° (Epoch: 09 September)

Event Time Altitude Azimuth Distance (km) Brightness Sun altitude
Exits shadow 22:51:35 79° 54° (NE) 867 2.1 -28.4°
Drops below altitude 10° 22:56:58 10° 29° (NNE) 2,480 5.3 -28.5°
Sets 22:59:26 0° 29° (NNE) 3,419 6.1 -28.5°
